EW4327 Weather Reports


time (UTC)temp
C
wind
direction
speed
KPH
gust
KPH
rain 1hr
cm
rain 24hr
cm
rain mn
cm
humidity
%
barometer
mb
20200217013104 12 179 3.2 17.7 0.00 0.00 0.00 51 1014.7
20200217011547 12 288 6.4 16.1 0.00 0.00 0.00 51 1014.7
20200217010029 12 212 6.4 17.7 0.00 0.00 0.00 51 1014.9
20200217004534 12 205 6.4 19.3 0.00 0.00 0.00 51 1014.8
20200217003059 12 211 1.6 16.1 0.00 0.00 0.00 51 1014.8
20200217001521 12 186 4.8 14.5 0.00 0.00 0.00 50 1015.0
20200217000021 12 196 1.6 17.7 0.00 0.00 0.00 50 1014.8
20200216234536 12 183 1.6 19.3 0.00 0.00 0.00 49 1014.8
20200216233025 12 293 6.4 22.5 0.00 0.00 0.00 49 1014.7
20200216231554 12 171 3.2 16.1 0.00 0.00 0.00 50 1014.7
20200216230018 12 167 3.2 11.3 0.00 0.00 0.00 51 1014.6
20200216224502 12 212 4.8 16.1 0.00 0.00 0.00 50 1014.5
20200216223001 12 171 0.0 17.7 0.00 0.00 0.00 50 1014.6
20200216221501 12 240 3.2 16.1 0.00 0.00 0.00 50 1014.7
20200216220211 12 238 4.8 17.7 0.00 0.00 0.00 50 1014.8
20200216214711 11 207 3.2 16.1 0.00 0.00 0.00 52 1014.7
20200216213120 11 215 1.6 12.9 0.00 0.00 0.00 53 1014.5
20200216211701 11 162 0.0 9.7 0.00 0.00 0.00 53 1014.3
20200216210117 11 182 1.6 9.7 0.00 0.00 0.00 52 1014.4
20200216204744 11 192 3.2 12.9 0.00 0.00 0.00 52 1014.5
20200216203130 11 157 3.2 14.5 0.00 0.00 0.00 52 1014.5
20200216201606 11 205 4.8 17.7 0.00 0.00 0.00 52 1014.7
20200216200140 12 227 4.8 19.3 0.00 0.00 0.00 51 1014.7
20200216194635 11 190 6.4 20.9 0.00 0.00 0.00 52 1014.5
20200216193051 11 202 8.0 16.1 0.00 0.00 0.00 52 1014.4
20200216191653 11 72 0.0 14.5 0.00 0.00 0.00 54 1014.6
20200216190101 11 157 0.0 16.1 0.00 0.00 0.00 54 1014.9
20200216184557 11 110 1.6 9.7 0.00 0.00 0.00 53 1014.9
20200216183132 11 153 4.8 19.3 0.00 0.00 0.00 53 1015.1
20200216181615 11 130 1.6 16.1 0.00 0.00 0.00 53 1015.3
20200216180123 12 180 1.6 16.1 0.00 0.00 0.00 52 1015.4
20200216174621 11 136 4.8 17.7 0.00 0.00 0.00 52 1015.5
20200216173111 11 223 3.2 16.1 0.00 0.00 0.00 51 1015.4
20200216171540 11 206 3.2 9.7 0.00 0.00 0.00 51 1015.5
20200216170051 11 175 1.6 9.7 0.00 0.00 0.00 52 1015.4
20200216164644 11 161 3.2 11.3 0.00 0.00 0.00 52 1015.5
20200216163035 11 200 0.0 8.0 0.00 0.00 0.00 52 1015.5
20200216161602 11 175 0.0 9.7 0.00 0.00 0.00 53 1015.5
20200216160049 11 144 1.6 6.4 0.00 0.00 0.00 53 1015.8
20200216154624 12 135 3.2 11.3 0.00 0.00 0.00 53 1015.8
20200216153037 12 267 1.6 6.4 0.00 0.00 0.00 53 1016.0
20200216151555 12 159 0.0 9.7 0.00 0.00 0.00 53 1016.0
20200216150034 12 144 3.2 12.9 0.00 0.00 0.00 52 1016.0
20200216144557 12 105 1.6 9.7 0.00 0.00 0.00 53 1016.1
20200216143045 12 142 3.2 19.3 0.00 0.00 0.00 52 1016.2
20200216141545 12 175 3.2 16.1 0.00 0.00 0.00 54 1016.5
20200216140029 11 159 3.2 9.7 0.00 0.00 0.00 56 1016.6
20200216134519 11 221 3.2 14.5 0.00 0.00 0.00 58 1016.7
20200216133015 11 142 3.2 12.9 0.00 0.00 0.00 59 1016.8
20200216131509 10 136 4.8 11.3 0.00 0.00 0.00 61 1017.1
20200216130011 10 138 3.2 12.9 0.00 0.00 0.00 62 1017.4
20200216124504 10 194 3.2 11.3 0.00 0.00 0.00 62 1017.7
20200216123151 9 159 3.2 11.3 0.00 0.00 0.00 63 1017.6
20200216121631 9 131 1.6 11.3 0.00 0.00 0.00 66 1017.7
20200216120230 10 107 1.6 9.7 0.00 0.00 0.00 64 1018.0
20200216114604 10 163 3.2 9.7 0.00 0.00 0.00 61 1018.5
20200216113109 10 126 3.2 12.9 0.00 0.00 0.00 60 1018.9
20200216111734 10 171 1.6 11.3 0.00 0.00 0.00 61 1019.3
20200216110224 10 126 0.0 3.2 0.00 0.00 0.00 59 1019.5
20200216104644 10 202 0.0 6.4 0.00 0.00 0.00 59 1019.9
20200216103159 10 159 0.0 11.3 0.00 0.00 0.00 58 1020.0
20200216101547 10 215 1.6 9.7 0.00 0.00 0.00 59 1020.3
20200216100128 10 167 4.8 11.3 0.00 0.00 0.00 59 1020.3
20200216094626 10 182 1.6 12.9 0.00 0.00 0.00 60 1020.1
20200216093144 9 107 3.2 11.3 0.00 0.00 0.00 60 1020.3
20200216091535 9 211 1.6 8.0 0.00 0.00 0.00 61 1020.5
20200216090056 8 96 1.6 11.3 0.00 0.00 0.00 64 1020.4
20200216084542 8 108 0.0 4.8 0.00 0.00 0.00 66 1020.4
20200216083045 7 196 0.0 4.8 0.00 0.00 0.00 68 1020.4
20200216081603 7 109 3.2 11.3 0.00 0.00 0.00 68 1020.6
20200216080107 7 194 0.0 6.4 0.00 0.00 0.00 69 1020.7
20200216074514 6 186 1.6 11.3 0.00 0.00 0.00 70 1020.5
20200216073014 6 160 0.0 11.3 0.00 0.00 0.00 70 1020.5
20200216071525 -17 90 0.0 6.4 0.00 0.00 0.00 1020.4
20200216070251 -17 194 0.0 9.7 0.00 0.00 0.00 1020.5
20200216064606 -17 198 1.6 8.0 0.00 0.00 0.00 1020.5
20200216063102 -17 172 0.0 3.2 0.00 0.00 0.00 1020.7
20200216061620 -17 127 0.0 9.7 0.00 0.00 0.00 1020.5
20200216060049 -17 156 1.6 11.3 0.00 0.00 0.00 1020.4
20200216054603 -17 177 0.0 8.0 0.00 0.00 0.00 1020.4
20200216053119 5 119 0.0 12.9 0.00 0.00 0.00 74 1020.5
20200216051634 5 111 0.0 11.3 0.00 0.00 0.00 74 1020.7
20200216050045 5 115 0.0 4.8 0.00 0.00 0.00 75 1020.6
20200216044618 5 159 0.0 4.8 0.00 0.00 0.00 75 1020.5
20200216043051 5 149 1.6 6.4 0.00 0.00 0.00 75 1020.5
20200216041603 5 146 1.6 6.4 0.00 0.00 0.00 76 1020.3
20200216040040 5 144 0.0 6.4 0.00 0.00 0.00 77 1020.4
20200216034548 5 163 1.6 8.0 0.00 0.00 0.00 78 1020.5
20200216033100 5 195 0.0 12.9 0.00 0.00 0.00 79 1020.8
20200216031606 5 140 1.6 8.0 0.00 0.00 0.00 82 1021.1
20200216030108 4 74 0.0 9.7 0.00 0.00 0.00 83 1021.1
20200216024611 4 102 1.6 4.8 0.00 0.00 0.00 84 1021.5
20200216023054 3 78 0.0 3.2 0.00 0.00 0.00 84 1021.7
20200216021529 4 78 0.0 0.0 0.00 0.00 0.00 83 1021.8
20200216020007 4 78 0.0 0.0 0.00 0.00 0.00 83 1022.0
20200216014512 4 78 0.0 3.2 0.00 0.00 0.00 82 1022.1